Regional Weather Roundup
Issued by NWS

Home | Current Version | Previous Version | Text Only | Print | Product List | Glossary Off
Versions: 1 2 3 4 5 6 7 8 9 10 11 12 13 14 15 16 17 18 19 20 21 22 23 24 25 26 27 28 29 30 31 32 33 34 35 36 37 38 39 40 41 42 43 44 45 46 47 48 49 50

000
ASUS43 KBIS 231910
RWRND

NORTH DAKOTA REGIONAL WEATHER ROUNDUP
NATIONAL WEATHER SERVICE BISMARCK ND
200 PM CDT WED JUL 23 2014

NOTE: "FAIR" INDICATES FEW OR NO CLOUDS BELOW 12,000 FEET WITH NO
SIGNIFICANT WEATHER AND/OR OBSTRUCTIONS TO VISIBILITY.


NDZ001>003-009>011-017-232000-
NORTHWEST NORTH DAKOTA

CITY           SKY/WX    TMP DP  RH WIND       PRES   REMARKS
WILLISTON      MOSUNNY   87  61  41 SE16G25   30.16F
MINOT          CLOUDY    72  64  76 E14       30.25S
MINOT AFB      PTSUNNY   72  66  83 E14       30.24F
$$

NDZ018>021-031>035-040>046-232000-
SOUTHWEST NORTH DAKOTA

CITY           SKY/WX    TMP DP  RH WIND       PRES   REMARKS
BISMARCK       MOSUNNY   80  62  54 SE15G25   30.24F
DICKINSON      MOSUNNY   79  65  62 SE16      30.18F
GARRISON         N/A     78  66  66 S14       30.23F
HETTINGER ARPT SUNNY     82  62  50 SE15G26   30.20F
$$

NDZ004>008-012>016-024-026-027-054-232000-
NORTHEAST NORTH DAKOTA

CITY           SKY/WX    TMP DP  RH WIND       PRES   REMARKS
GRAND FORKS    MOSUNNY   73  58  59 VRB7      30.28F
GRND FRKS AFB  SUNNY     72  59  64 N5        30.30S
DEVILS LAKE    PTSUNNY   70  54  56 SE9       30.28F
$$

NDZ022-023-025-028>030-036>039-047>053-232000-
SOUTHEAST NORTH DAKOTA

CITY           SKY/WX    TMP DP  RH WIND       PRES   REMARKS
FARGO          MOSUNNY   77  59  53 N7        30.27S
JAMESTOWN      SUNNY     76  57  51 SE9       30.28F
$$



USA.gov is the U.S. government's official web portal to all federal, state and local government web resources and services.